Vorticity
9 9 10 9 7 4 7 10 5 1 4 -1 -5 7 9 4 7 6 4 7 10 12 8 7 9 8 6 5 9 13 6 3 7 8 7 8 9 9 9 9 9 10 10 10 12 12 11 11 10 9 9 9 9 9 9 10 10 9 9 10 10 11 12 12 11 10 9 8 9 9 9 8 8 9 9 9 10 9 9 10 11 11 11 11 9 9
9 9 8 8 7 9 12 12 9 7 8 8 7 7 6 6 7 3 5 9 9 8 8 10 9 8 10 6 5 11 11 7 6 7 9 9 9 9 10 11 12 12 12 11 12 10 9 9 8 9 9 9 9 10 9 9 10 10 10 10 10 10 10 12 12 11 10 9 8 8 8 8 8 9 9 9 9 10 10 9 9 10 11 11 11 10
8 8 7 9 9 10 11 7 6 8 5 5 6 5 4 5 8 8 5 5 6 7 7 7 8 9 11 9 7 9 13 13 7 6 10 10 11 13 13 13 13 11 10 9 9 8 8 8 8 9 9 9 9 9 9 9 9 9 10 10 10 9 9 10 11 11 11 10 10 9 8 8 8 8 9 9 8 9 10 10 11 10 11 12 11 11
8 7 5 6 5 6 8 6 5 5 6 6 3 4 6 5 5 9 9 7 8 10 10 9 10 11 9 9 9 7 8 13 12 10 11 13 14 15 13 12 10 9 8 8 8 7 7 8 8 8 8 9 9 10 10 9 9 9 9 9 8 8 8 7 8 9 10 10 10 10 9 9 8 8 7 7 8 8 8 10 11 12 12 12 12 12
8 4 1 -0 -0 2 2 4 7 7 6 6 5 5 6 6 5 5 5 6 7 8 9 7 6 12 13 9 9 12 11 11 13 13 13 14 12 11 10 9 8 8 8 8 8 8 8 9 9 9 9 9 10 10 9 9 9 9 8 8 7 7 7 6 7 8 8 9 9 9 9 9 9 9 9 8 8 8 8 8 8 11 12 12 12 12
3 3 6 4 3 5 4 5 7 5 5 9 11 10 4 3 8 8 5 9 14 14 12 13 19 24 19 11 8 11 13 12 13 12 12 10 9 8 8 8 8 8 8 9 9 9 9 10 9 9 9 8 8 9 9 10 9 8 8 8 7 7 7 7 7 7 7 7 8 8 8 9 9 9 9 9 8 8 8 8 7 8 9 10 11 12
4 4 8 10 9 8 8 10 9 7 10 13 11 13 15 12 13 13 11 15 16 13 13 15 15 11 8 16 20 14 10 11 10 10 10 9 8 9 8 9 9 9 9 10 10 10 10 9 9 9 8 8 8 8 8 8 8 8 8 8 8 8 7 7 7 7 7 6 6 6 6 7 7 7 7 8 8 8 7 7 8 7 7 8 8 10
16 17 17 19 19 18 19 17 15 19 20 16 15 17 20 18 17 16 15 17 13 7 9 7 5 4 2 12 18 9 5 7 7 7 8 8 8 8 8 9 9 9 9 9 9 9 9 10 9 9 9 9 8 8 7 7 8 8 7 8 8 7 7 8 8 7 8 8 7 7 7 6 7 7 7 8 8 8 8 8 9 8 8 8 7 9
18 19 17 17 16 16 19 16 16 23 20 14 16 15 13 14 16 16 14 13 9 7 11 11 11 10 7 16 18 10 8 7 7 8 7 9 10 9 9 10 10 11 10 10 10 10 10 10 10 10 10 9 8 8 8 8 8 8 8 9 8 8 8 8 8 8 8 9 9 8 8 7 7 7 7 8 8 8 8 8 9 9 9 9 8 9
13 11 9 11 13 13 13 12 14 18 14 11 13 11 11 13 10 8 7 8 7 7 8 10 11 8 9 17 13 12 18 13 10 11 7 6 10 11 11 11 12 12 12 12 11 12 12 12 13 12 11 10 9 8 9 9 9 9 9 9 9 9 9 8 9 9 8 9 9 9 9 8 8 8 7 8 7 7 7 7 8 9 9 9 9 9
6 8 9 9 10 10 9 11 14 14 12 11 10 7 6 7 6 7 9 8 5 5 5 5 6 5 4 5 7 17 24 14 10 14 13 10 9 10 10 11 12 12 12 12 11 11 12 11 12 12 11 11 11 10 10 9 9 9 9 9 10 9 9 9 9 8 7 8 8 8 8 8 8 7 7 7 7 7 7 7 8 9 9 8 9 9
6 7 9 9 9 9 9 10 9 9 9 8 7 7 5 7 11 10 7 6 5 8 14 13 10 9 10 16 17 7 -2 -2 4 10 13 12 10 10 10 10 11 11 11 11 11 11 11 11 10 10 11 10 10 10 10 10 9 9 9 9 9 9 8 8 8 7 6 5 7 7 6 7 7 6 6 6 7 7 6 7 8 9 10 9 9 9
12 8 6 4 4 3 3 6 6 5 5 5 5 4 4 11 14 7 7 13 11 7 8 10 8 5 5 8 -1 -20 -20 -2 5 4 7 7 5 7 7 7 8 9 11 11 10 11 10 10 10 9 9 9 9 10 9 9 9 8 8 8 7 7 7 6 6 6 5 5 5 5 5 5 5 6 6 6 7 7 7 7 7 7 9 10 10 10
2 10 12 10 8 7 5 6 8 9 6 4 5 5 8 12 8 6 16 22 20 18 16 14 14 11 9 9 -0 -8 0 8 2 0 4 4 5 5 4 5 5 5 7 8 9 11 11 10 10 9 9 9 9 9 8 7 7 7 7 6 6 6 5 5 5 4 4 4 4 4 5 5 5 5 6 6 6 7 8 7 7 7 7 8 10 10
-3 4 5 3 3 5 7 6 5 5 5 3 3 3 3 3 -1 -1 6 5 3 8 7 2 4 6 4 2 -3 -5 0 4 3 3 4 3 5 6 5 5 5 5 5 6 7 8 9 10 10 10 10 10 9 8 8 7 7 7 6 5 5 4 4 3 4 4 3 3 3 4 4 4 5 6 6 7 7 7 7 8 8 7 8 9 9 10
4 6 7 4 1 -1 -1 1 1 1 5 8 7 4 4 10 14 11 7 -0 -7 -7 -7 -8 -5 -4 -5 -4 1 1 -1 1 4 5 6 8 6 6 8 8 8 9 7 7 7 7 7 7 7 9 8 8 8 7 7 7 6 5 4 4 4 3 3 3 3 4 3 4 4 4 5 5 5 5 6 7 7 8 8 8 8 8 9 10 10 10
7 8 8 7 10 13 9 8 7 6 7 6 3 5 7 10 7 0 1 2 -4 -1 5 5 4 3 2 6 9 9 11 15 16 15 13 12 9 9 11 10 10 10 8 8 8 6 7 6 6 8 7 6 6 6 6 5 4 4 4 4 4 4 4 4 4 4 4 5 5 5 5 6 5 6 7 7 8 9 9 9 9 10 11 10 10 11
9 5 0 -2 3 9 7 7 8 10 11 7 5 7 5 1 -2 -2 5 8 5 11 14 8 7 9 13 18 16 18 28 30 27 24 18 14 12 10 9 10 10 9 8 8 8 8 8 8 9 8 6 6 7 5 6 5 5 5 5 5 5 5 5 5 5 5 5 5 5 6 6 6 7 8 8 9 9 9 9 10 11 11 12 11 10 10
6 5 3 2 5 7 6 5 4 5 7 7 7 6 2 3 5 3 6 7 5 9 10 6 8 10 10 12 9 9 13 13 14 16 13 15 19 14 11 8 7 8 9 8 9 9 9 9 10 10 9 8 8 7 7 7 7 6 6 6 6 5 5 6 6 5 6 6 6 6 7 7 8 8 9 10 10 10 10 10 11 12 12 11 11 10
6 7 5 3 5 5 4 3 3 5 9 10 9 8 7 7 7 7 10 12 9 5 2 1 4 6 7 8 8 8 5 4 8 5 -1 4 9 10 14 14 9 8 9 9 10 10 10 11 9 9 9 8 9 10 8 7 9 9 8 8 8 7 7 7 7 7 6 6 7 7 7 7 8 9 10 11 10 10 11 11 12 11 10 10 10 10
7 9 10 10 9 8 7 7 9 9 11 12 12 10 6 6 13 18 12 5 3 5 7 8 8 7 5 4 7 9 5 2 0 -1 4 8 6 11 21 23 17 14 11 11 12 12 12 13 12 11 11 11 10 9 7 9 11 11 10 10 9 8 8 7 7 7 8 8 8 9 8 9 11 11 11 11 10 10 11 12 12 11 11 10 9 9
9 11 10 9 8 8 5 4 6 5 3 3 3 1 2 8 13 11 5 1 1 4 7 9 10 7 3 2 2 2 5 9 5 1 8 11 8 9 6 -1 1 9 11 9 8 11 12 10 11 11 10 13 12 10 11 13 11 7 7 7 7 7 6 7 7 8 9 9 9 11 11 12 12 11 11 10 10 11 10 10 9 10 11 10 10 10
9 10 8 6 5 3 3 6 7 4 1 1 1 1 3 5 -1 -8 -2 6 9 11 8 3 4 6 6 8 9 4 2 5 5 -0 -4 -3 1 -1 -9 -10 -2 5 10 9 6 9 13 10 9 8 7 8 10 10 10 9 8 6 7 8 8 9 9 10 11 11 11 11 11 12 12 12 12 10 10 10 10 10 9 8 8 8 8 8 9 10
11 9 9 12 10 7 8 9 5 7 11 12 14 15 13 13 12 7 6 6 6 10 8 5 5 6 6 6 6 7 4 0 -1 -4 -8 -8 -4 -5 -6 2 7 6 9 13 11 11 12 9 8 7 4 3 6 8 7 8 9 9 10 11 11 13 14 14 14 14 14 14 14 14 13 12 12 11 10 10 9 9 8 8 8 8 8 8 8 8
7 5 6 7 6 6 7 6 12 25 27 18 16 20 20 20 20 17 18 16 10 7 9 11 6 3 7 8 4 5 8 7 1 -3 0 3 2 3 5 5 2 0 4 8 9 10 8 5 5 6 6 4 5 7 8 9 10 9 10 12 12 13 14 14 15 14 13 13 12 12 12 11 11 11 11 10 10 10 9 9 9 9 9 8 8 9
2 1 2 2 2 4 5 5 11 14 5 -3 1 5 4 4 2 4 13 14 7 6 12 14 5 1 6 9 7 7 9 11 6 2 6 7 8 18 24 16 2 -5 1 3 1 4 6 7 8 7 7 9 8 8 9 8 9 11 12 12 13 13 12 12 13 11 11 11 10 10 11 11 11 12 11 11 11 11 10 11 11 11 11 11 11 11
6 6 7 7 8 9 8 7 6 2 -3 2 8 6 3 3 2 4 6 3 4 9 12 13 13 13 12 12 13 10 0 -3 -4 -3 -2 -2 3 13 15 16 15 7 5 5 -1 2 8 9 12 11 8 9 10 9 9 8 9 11 12 13 13 12 12 13 13 13 13 13 13 12 11 11 11 11 11 11 11 12 12 12 13 12 12 13 12 12
9 8 7 9 10 9 9 9 8 9 11 10 8 8 9 10 11 13 10 9 14 12 4 6 11 11 11 13 15 12 5 -1 0 4 5 1 5 5 -4 4 23 24 17 10 3 4 5 3 7 12 11 9 9 9 8 7 8 10 12 14 14 13 12 11 10 10 10 10 11 11 10 10 10 10 10 10 10 11 11 11 12 11 12 12 11 12
9 7 7 9 10 7 7 7 7 9 9 6 6 8 8 8 11 13 12 14 18 14 8 11 14 14 13 6 3 11 17 14 12 13 9 0 0 5 1 1 13 23 24 18 9 5 5 6 9 13 13 9 8 9 8 7 9 12 12 11 9 7 5 3 3 4 6 8 10 10 10 9 9 9 9 10 10 10 10 10 10 10 10 11 11 11
10 8 4 5 9 8 5 6 9 10 10 10 9 7 7 10 13 13 14 16 18 17 16 17 17 15 10 0 4 20 27 21 18 18 16 8 -2 0 9 5 -5 -4 8 16 16 10 5 4 9 13 12 8 9 10 8 8 10 9 7 5 2 3 2 1 3 4 6 10 11 12 12 11 12 12 11 12 11 11 11 11 11 11 11 11 12 12
12 13 9 10 14 10 5 10 13 11 10 8 3 4 12 17 15 13 14 15 15 14 14 15 10 2 5 14 21 25 24 19 19 19 21 21 8 -3 7 16 3 -10 -5 8 15 17 16 11 8 10 9 6 10 13 8 8 10 7 5 4 2 4 5 4 5 7 9 12 12 12 13 12 12 12 11 11 11 10 11 12 11 13 13 13 13 13
11 9 9 13 14 9 8 13 14 13 11 3 0 11 21 20 15 14 15 15 15 16 17 18 13 7 15 27 23 16 18 18 20 22 23 28 26 5 -5 10 17 6 -9 -18 -16 2 20 20 10 6 7 9 12 12 7 6 10 9 6 4 4 6 5 4 5 8 11 12 11 11 11 10 10 9 9 10 9 10 10 11 12 12 13 14 14 13
9 8 12 12 10 11 10 11 15 13 3 -4 5 19 21 18 18 18 19 18 19 20 19 17 15 13 15 20 19 19 21 18 19 24 22 26 38 26 2 -6 5 15 7 -11 -9 9 9 2 4 5 6 10 12 8 5 8 11 10 6 5 5 5 4 4 6 9 11 11 10 10 9 9 9 9 10 10 10 12 12 11 12 12 13 14 13 13
9 11 13 10 8 10 11 15 14 2 -6 3 17 20 16 16 17 14 15 17 14 11 10 7 6 6 10 17 19 16 16 16 19 24 23 21 27 32 25 4 -7 11 19 1 1 14 1 -7 9 13 4 8 11 5 5 10 10 8 5 5 5 4 4 5 7 9 11 11 10 10 9 8 8 8 9 10 10 12 13 13 13 12 12 13 13 13
10 12 12 12 12 9 13 18 6 -8 -1 12 15 15 16 16 16 14 14 14 10 7 8 6 5 7 13 18 14 10 14 19 18 21 25 25 21 21 30 25 4 2 11 8 10 15 6 5 18 13 3 7 10 6 7 9 7 5 5 6 5 4 5 7 8 10 11 11 10 8 6 5 6 6 7 8 10 10 12 14 15 14 13 13 14 14
14 16 14 13 10 8 15 16 6 5 13 13 17 28 27 14 11 12 6 3 4 6 8 7 6 10 15 14 12 13 14 13 15 21 24 27 27 21 22 31 24 2 -6 5 16 14 9 13 16 9 6 9 8 7 7 6 5 6 6 6 5 5 6 6 8 12 12 9 5 3 4 5 6 8 9 10 11 11 12 14 17 19 17 15 16 16
12 11 10 14 15 16 18 16 19 21 14 13 28 32 14 2 7 11 9 10 11 8 7 9 11 15 19 18 17 18 17 17 24 26 20 19 27 28 19 19 28 24 7 1 7 8 8 12 9 6 11 12 9 8 6 4 6 8 6 6 6 5 6 8 11 12 8 4 3 3 6 8 10 12 13 13 14 15 16 17 19 19 19 18 17 17
10 15 20 20 15 13 12 12 17 10 -4 7 22 9 -3 9 19 16 12 11 10 11 14 17 17 20 21 17 12 11 16 26 27 21 21 23 23 26 25 15 16 28 22 7 7 10 6 6 10 14 17 14 8 6 5 5 8 8 7 6 5 4 7 10 11 8 4 3 6 8 10 13 13 13 14 16 18 19 20 20 19 17 15 14 13 13
12 19 24 15 5 10 14 9 8 -0 -8 6 14 4 8 21 19 15 18 15 14 19 18 13 12 12 10 10 11 14 15 19 21 20 25 27 16 16 29 25 11 8 5 -4 -1 7 5 7 21 28 21 13 8 6 7 8 8 8 7 5 5 6 9 11 9 5 4 6 8 10 13 12 10 11 15 18 20 20 19 16 12 10 9 10 11 12
10 13 16 8 1 9 14 6 6 6 3 12 20 17 17 13 4 6 12 12 12 11 4 6 12 8 3 4 11 17 16 14 21 27 20 13 14 22 32 28 12 6 9 3 -2 4 9 12 25 32 21 11 9 7 8 8 7 7 6 5 6 8 9 10 7 5 5 7 9 11 12 10 9 12 17 19 17 15 12 8 7 9 12 15 17 18
15 17 17 12 5 11 17 13 9 10 9 16 21 15 12 17 21 25 21 15 18 17 11 13 16 12 11 10 6 11 16 15 19 25 11 -3 6 22 28 23 13 9 13 8 1 6 14 17 25 29 17 8 8 8 7 7 6 6 7 7 9 10 9 8 6 6 7 8 10 12 12 11 13 15 17 17 13 8 5 7 12 17 20 21 20 18
20 16 14 16 14 12 17 17 13 15 19 20 18 14 15 16 14 14 13 10 14 19 19 17 15 15 19 16 7 9 15 12 12 17 14 6 12 23 23 19 17 18 18 16 13 16 21 24 28 22 10 6 8 7 5 5 6 7 9 9 9 9 8 7 7 7 9 9 11 13 14 14 15 16 16 13 6 4 6 13 19 21 19 18 16 14
14 8 9 16 13 6 13 22 22 22 18 8 4 10 16 14 7 8 13 13 9 10 15 17 15 17 21 19 15 13 11 11 13 14 13 13 21 34 38 27 15 14 20 25 26 24 24 28 25 13 6 8 7 5 6 7 9 10 9 8 8 8 8 8 8 8 10 11 13 14 15 15 15 15 13 6 2 6 13 18 20 17 13 13 14 15
7 11 13 16 13 10 16 21 18 17 13 7 7 11 12 14 17 17 20 23 15 8 14 21 19 16 18 18 20 17 11 12 13 9 16 27 25 29 44 42 21 9 14 25 31 28 24 21 13 6 6 7 6 6 9 10 10 9 7 7 8 8 8 8 8 9 10 12 13 15 15 15 15 13 7 2 4 12 17 19 16 11 10 11 14 15
13 22 20 16 16 18 19 14 9 13 16 14 14 15 12 11 9 5 9 19 17 8 9 17 24 25 19 16 18 16 11 16 12 0 13 30 17 3 17 30 25 20 24 27 26 20 14 10 7 6 8 7 7 9 11 9 8 8 7 8 8 8 9 9 10 10 10 11 14 15 15 14 13 8 3 4 11 17 18 17 13 9 8 10 12 13
23 20 13 12 15 20 23 17 11 16 22 21 17 13 13 12 6 6 12 15 16 14 2 -2 16 31 22 13 15 12 10 18 14 -0 3 11 -0 -9 0 9 12 18 19 15 10 6 4 6 7 8 8 7 8 10 9 9 9 7 7 9 10 11 11 10 9 8 9 13 15 14 14 14 10 5 5 10 16 19 17 14 10 8 9 11 13 12
26 16 15 19 16 13 12 9 13 19 20 20 21 24 29 24 10 12 21 15 14 20 7 -6 12 31 20 8 11 13 15 22 17 8 11 11 1 -1 2 1 6 13 9 1 -1 -1 2 7 6 6 8 8 9 11 9 8 8 7 10 13 14 13 12 10 10 10 10 13 15 14 14 12 6 4 9 14 18 18 15 11 9 8 9 12 12 12
20 18 25 27 15 6 2 -0 8 14 12 11 15 22 31 24 4 8 25 20 13 18 11 -0 12 25 14 4 10 16 20 24 20 14 14 9 3 8 13 8 9 10 4 -1 1 3 6 8 8 9 13 12 11 10 8 7 8 10 13 14 12 11 11 11 11 11 11 14 16 15 12 8 4 6 12 16 18 17 12 9 9 8 8 10 10 15
24 18 23 21 10 8 11 8 5 3 4 12 16 17 24 21 5 6 23 26 18 16 12 8 14 18 9 4 12 20 23 22 19 14 13 7 4 13 24 20 12 7 4 4 6 8 9 11 12 14 14 11 9 7 6 8 11 11 11 10 8 9 12 13 12 12 14 16 16 13 9 5 4 8 14 17 18 15 10 8 10 9 8 10 11 18
24 16 20 19 8 4 6 8 8 4 -0 6 14 18 23 21 7 0 9 20 24 19 12 12 14 11 7 10 19 26 28 22 13 7 9 10 8 12 21 20 13 12 12 7 5 7 11 14 15 13 10 8 8 8 9 9 9 8 8 8 8 11 13 13 13 15 16 16 14 9 5 5 7 10 15 19 19 14 9 9 11 10 9 11 13 22
15 10 19 24 21 18 10 3 4 7 4 5 16 25 25 17 11 5 -0 6 22 23 13 11 12 10 14 21 26 27 23 16 10 8 10 11 8 9 14 14 10 11 9 2 1 8 13 14 11 9 9 10 9 8 9 8 7 8 9 9 11 13 14 15 16 16 15 13 10 6 5 8 10 12 16 19 20 15 8 8 12 11 9 11 14 23
Height
5754 5755 5755 5755 5755 5754 5755 5757 5756 5756 5757 5758 5758 5759 5760 5760 5761 5759 5752 5754 5761 5760 5759 5760 5759 5761 5761 5759 5757 5755 5758 5762 5763 5763 5762 5762 5762 5763 5763 5764 5764 5763 5763 5762 5761 5762 5763 5762 5762 5762 5763 5765 5766 5767 5767 5767 5768 5768 5769 5770 5771 5772 5772 5773 5773 5773 5774 5774 5775 5777 5778 5779 5780 5781 5782 5782 5783 5784 5785 5786 5787 5788 5790 5791 5792 5792
5752 5752 5752 5752 5752 5751 5752 5754 5753 5754 5755 5755 5756 5756 5756 5757 5758 5754 5749 5752 5757 5756 5755 5755 5755 5757 5758 5757 5754 5752 5752 5757 5761 5759 5758 5758 5759 5759 5759 5760 5760 5760 5760 5759 5759 5759 5759 5759 5759 5759 5760 5761 5762 5763 5763 5763 5764 5765 5765 5766 5767 5768 5769 5770 5771 5771 5771 5771 5772 5773 5774 5776 5777 5778 5779 5779 5780 5781 5782 5783 5784 5785 5786 5787 5788 5789
5749 5750 5749 5748 5749 5748 5749 5750 5750 5751 5752 5753 5753 5752 5753 5753 5752 5750 5748 5749 5751 5752 5753 5751 5751 5753 5754 5753 5751 5750 5749 5752 5756 5756 5754 5755 5755 5756 5756 5756 5757 5756 5756 5756 5756 5756 5755 5755 5756 5756 5757 5757 5758 5759 5759 5760 5760 5761 5762 5763 5764 5765 5766 5767 5768 5768 5768 5769 5769 5770 5771 5772 5774 5775 5776 5776 5777 5777 5778 5779 5780 5781 5782 5784 5785 5786
5747 5745 5745 5746 5746 5745 5745 5746 5747 5748 5749 5749 5749 5749 5750 5749 5747 5747 5744 5745 5748 5748 5749 5747 5747 5749 5750 5749 5748 5747 5748 5749 5750 5751 5751 5751 5752 5752 5753 5753 5753 5753 5753 5752 5753 5753 5752 5752 5752 5753 5753 5754 5755 5755 5756 5756 5757 5758 5758 5759 5760 5761 5762 5763 5764 5765 5765 5766 5767 5767 5768 5769 5770 5771 5772 5773 5773 5774 5775 5776 5777 5778 5779 5780 5780 5782
5742 5740 5741 5743 5742 5742 5742 5743 5744 5745 5745 5745 5745 5745 5746 5743 5743 5745 5740 5741 5745 5744 5744 5743 5743 5745 5745 5743 5744 5744 5745 5746 5746 5747 5748 5748 5748 5749 5749 5749 5749 5749 5749 5749 5749 5749 5749 5749 5749 5749 5749 5750 5751 5751 5752 5753 5753 5754 5755 5755 5756 5757 5758 5759 5760 5761 5762 5762 5763 5764 5765 5766 5767 5768 5769 5770 5770 5771 5771 5772 5773 5774 5775 5775 5776 5778
5738 5737 5739 5738 5738 5738 5739 5739 5739 5740 5740 5740 5739 5740 5742 5739 5739 5741 5738 5739 5741 5739 5740 5740 5740 5741 5738 5738 5741 5740 5740 5742 5742 5743 5744 5745 5745 5745 5746 5746 5746 5746 5746 5746 5746 5746 5746 5746 5745 5746 5746 5746 5747 5747 5748 5749 5750 5750 5751 5752 5752 5753 5754 5755 5756 5757 5758 5759 5759 5760 5761 5762 5763 5765 5766 5766 5767 5767 5768 5768 5769 5770 5771 5771 5772 5774
5733 5734 5735 5734 5734 5735 5735 5735 5734 5736 5737 5736 5735 5735 5736 5736 5735 5736 5735 5736 5737 5735 5736 5736 5737 5737 5734 5735 5736 5735 5737 5738 5738 5740 5740 5741 5741 5742 5742 5742 5742 5742 5742 5742 5742 5742 5742 5742 5742 5742 5742 5743 5743 5744 5744 5745 5746 5746 5747 5748 5749 5749 5750 5751 5752 5753 5754 5754 5755 5756 5757 5758 5759 5760 5762 5763 5763 5764 5764 5765 5765 5766 5767 5767 5768 5769
5730 5730 5731 5730 5731 5731 5731 5731 5730 5732 5733 5732 5732 5732 5732 5732 5732 5733 5733 5733 5734 5732 5732 5733 5734 5734 5734 5734 5732 5730 5734 5734 5734 5736 5737 5737 5738 5738 5738 5738 5738 5738 5738 5738 5738 5738 5738 5738 5739 5739 5739 5739 5739 5739 5740 5741 5742 5743 5743 5744 5745 5746 5746 5747 5748 5749 5750 5750 5751 5751 5752 5753 5754 5755 5757 5758 5759 5760 5761 5761 5762 5762 5763 5763 5763 5764
5727 5727 5727 5727 5728 5727 5728 5728 5728 5729 5729 5728 5729 5729 5729 5729 5729 5730 5730 5730 5730 5728 5729 5730 5730 5731 5732 5733 5729 5727 5730 5731 5731 5732 5733 5734 5734 5734 5734 5734 5734 5734 5734 5734 5734 5734 5734 5735 5735 5735 5735 5735 5735 5735 5736 5737 5738 5738 5739 5740 5741 5742 5743 5744 5745 5745 5746 5746 5747 5747 5748 5749 5750 5751 5752 5753 5754 5755 5756 5757 5758 5758 5759 5759 5759 5760
5725 5724 5724 5725 5725 5725 5725 5725 5726 5726 5726 5726 5726 5726 5726 5726 5727 5727 5727 5728 5727 5725 5727 5728 5727 5728 5731 5731 5728 5725 5726 5728 5728 5728 5729 5730 5730 5731 5731 5731 5730 5730 5730 5730 5730 5730 5731 5731 5731 5732 5732 5731 5731 5732 5732 5733 5734 5734 5735 5736 5737 5738 5739 5740 5741 5742 5742 5743 5743 5743 5744 5744 5745 5746 5747 5748 5749 5750 5751 5751 5752 5753 5754 5755 5755 5756
5723 5722 5722 5722 5722 5723 5723 5723 5723 5723 5724 5724 5724 5724 5724 5724 5724 5725 5725 5725 5724 5723 5725 5727 5725 5725 5727 5729 5729 5725 5722 5725 5726 5724 5725 5727 5727 5727 5727 5728 5727 5727 5727 5727 5727 5727 5727 5727 5728 5728 5728 5728 5728 5728 5729 5729 5730 5731 5731 5732 5733 5734 5735 5736 5737 5738 5739 5739 5739 5739 5740 5740 5740 5741 5742 5743 5744 5745 5746 5746 5747 5748 5749 5750 5750 5751
5720 5720 5720 5720 5720 5720 5720 5721 5721 5721 5721 5721 5722 5722 5722 5722 5722 5722 5722 5722 5720 5721 5723 5723 5722 5722 5723 5726 5728 5723 5719 5722 5724 5722 5721 5722 5724 5724 5724 5724 5724 5724 5724 5724 5723 5724 5724 5724 5724 5724 5724 5724 5724 5725 5725 5726 5726 5727 5727 5728 5729 5729 5731 5732 5732 5733 5734 5735 5735 5735 5735 5736 5736 5736 5736 5737 5738 5739 5740 5741 5742 5742 5743 5744 5744 5745
5718 5718 5718 5717 5718 5718 5718 5718 5718 5719 5720 5719 5719 5720 5720 5721 5720 5718 5719 5718 5717 5719 5720 5719 5718 5717 5718 5722 5723 5719 5716 5718 5721 5720 5718 5719 5720 5720 5720 5720 5721 5720 5720 5720 5720 5720 5721 5721 5720 5721 5721 5721 5721 5721 5721 5722 5722 5723 5723 5724 5724 5725 5726 5727 5728 5729 5730 5730 5730 5730 5731 5731 5731 5731 5731 5732 5732 5733 5733 5734 5735 5736 5737 5738 5738 5739
5716 5716 5715 5715 5715 5715 5716 5716 5716 5716 5717 5717 5717 5718 5718 5719 5718 5716 5717 5717 5716 5717 5716 5715 5714 5712 5713 5716 5718 5717 5715 5714 5716 5717 5716 5715 5716 5716 5716 5716 5717 5717 5717 5716 5716 5716 5717 5717 5717 5717 5717 5717 5717 5717 5717 5718 5718 5719 5719 5719 5720 5721 5722 5723 5723 5724 5725 5725 5726 5726 5726 5726 5726 5726 5726 5727 5727 5727 5727 5728 5728 5729 5730 5731 5732 5733
5715 5715 5714 5712 5712 5712 5713 5714 5714 5714 5714 5713 5714 5715 5715 5715 5715 5714 5715 5715 5714 5714 5712 5711 5710 5709 5710 5711 5713 5715 5713 5710 5711 5713 5713 5712 5712 5712 5712 5713 5712 5713 5713 5712 5712 5711 5712 5713 5713 5712 5713 5713 5713 5713 5713 5713 5714 5714 5715 5715 5715 5716 5718 5718 5719 5719 5720 5721 5721 5721 5721 5721 5721 5721 5721 5721 5721 5722 5722 5722 5722 5722 5723 5724 5725 5726
5712 5714 5712 5709 5710 5710 5710 5711 5711 5712 5712 5711 5711 5711 5712 5712 5711 5710 5709 5710 5710 5709 5708 5707 5706 5706 5708 5708 5708 5710 5711 5709 5707 5707 5708 5708 5708 5708 5708 5708 5708 5708 5709 5708 5708 5708 5707 5708 5709 5708 5709 5709 5709 5709 5709 5709 5710 5710 5710 5710 5711 5711 5713 5714 5714 5714 5715 5716 5716 5717 5717 5717 5717 5716 5716 5716 5716 5716 5716 5716 5716 5716 5717 5717 5718 5719
5708 5710 5709 5706 5706 5708 5707 5707 5707 5708 5709 5709 5708 5708 5708 5709 5708 5705 5704 5705 5705 5703 5704 5704 5703 5703 5704 5704 5705 5705 5705 5707 5704 5702 5703 5702 5702 5703 5703 5703 5704 5703 5704 5704 5704 5703 5703 5703 5704 5704 5704 5704 5704 5704 5705 5705 5705 5705 5705 5706 5706 5707 5708 5708 5708 5709 5710 5710 5711 5711 5712 5712 5712 5711 5711 5710 5710 5710 5710 5710 5710 5711 5711 5711 5712 5712
5704 5705 5705 5703 5703 5704 5703 5703 5704 5704 5705 5705 5705 5705 5704 5703 5703 5701 5700 5700 5699 5698 5699 5700 5699 5699 5699 5700 5703 5702 5700 5701 5701 5698 5698 5697 5697 5698 5698 5698 5699 5699 5699 5699 5699 5699 5698 5699 5699 5699 5699 5699 5700 5700 5700 5701 5701 5701 5701 5701 5702 5702 5703 5703 5703 5703 5704 5704 5705 5705 5706 5706 5706 5706 5705 5705 5705 5704 5704 5704 5705 5705 5706 5706 5706 5706
5699 5700 5702 5701 5700 5700 5698 5699 5700 5701 5701 5701 5701 5701 5699 5698 5699 5698 5696 5696 5695 5693 5693 5695 5695 5695 5696 5696 5698 5700 5699 5697 5696 5695 5694 5693 5693 5693 5693 5693 5693 5694 5694 5694 5694 5694 5694 5694 5694 5694 5694 5694 5695 5695 5695 5696 5696 5697 5697 5697 5697 5697 5698 5699 5699 5698 5699 5699 5699 5700 5700 5700 5700 5700 5700 5699 5699 5699 5698 5699 5699 5699 5700 5700 5700 5700
5695 5695 5697 5698 5697 5696 5694 5695 5696 5697 5697 5695 5695 5696 5695 5694 5694 5694 5692 5691 5690 5689 5688 5689 5690 5691 5693 5694 5693 5695 5696 5694 5692 5692 5691 5690 5689 5689 5689 5688 5688 5688 5689 5689 5689 5689 5689 5689 5689 5690 5690 5689 5690 5690 5690 5691 5692 5692 5692 5692 5692 5693 5693 5694 5694 5694 5694 5694 5694 5694 5694 5694 5694 5694 5694 5694 5693 5693 5693 5693 5693 5693 5694 5694 5695 5694
5691 5690 5691 5693 5693 5691 5691 5692 5693 5694 5693 5690 5689 5689 5690 5689 5689 5688 5687 5686 5685 5684 5683 5683 5683 5686 5691 5691 5689 5689 5691 5691 5689 5688 5687 5686 5685 5685 5684 5683 5683 5683 5683 5684 5685 5684 5685 5685 5685 5685 5685 5685 5685 5685 5685 5686 5687 5687 5687 5687 5687 5687 5688 5688 5688 5688 5688 5688 5688 5688 5688 5688 5688 5688 5688 5688 5687 5687 5687 5687 5687 5687 5688 5688 5688 5688
5686 5685 5685 5687 5687 5686 5687 5688 5688 5688 5688 5687 5684 5684 5685 5685 5684 5682 5680 5682 5681 5679 5679 5678 5676 5681 5688 5688 5685 5684 5684 5685 5686 5685 5684 5682 5680 5681 5680 5679 5679 5680 5679 5679 5680 5680 5680 5680 5680 5681 5681 5680 5680 5680 5681 5681 5682 5682 5682 5682 5682 5682 5682 5683 5683 5683 5683 5683 5682 5682 5682 5682 5682 5682 5682 5681 5681 5681 5681 5681 5681 5681 5681 5682 5682 5682
5681 5680 5679 5680 5681 5681 5682 5683 5683 5682 5682 5681 5679 5680 5681 5679 5679 5677 5674 5676 5675 5673 5675 5673 5668 5675 5684 5684 5681 5680 5678 5678 5681 5681 5680 5678 5676 5677 5677 5675 5674 5675 5676 5675 5675 5675 5675 5676 5676 5676 5676 5676 5675 5676 5677 5677 5677 5677 5677 5677 5677 5677 5677 5677 5677 5677 5677 5677 5676 5676 5676 5676 5676 5676 5676 5675 5675 5675 5675 5675 5675 5675 5675 5675 5675 5676
5676 5675 5674 5674 5675 5676 5677 5677 5677 5677 5675 5674 5674 5675 5674 5673 5674 5672 5668 5669 5668 5667 5670 5668 5662 5670 5680 5679 5674 5672 5671 5673 5674 5674 5675 5674 5672 5672 5672 5671 5669 5670 5671 5670 5670 5670 5671 5671 5671 5671 5672 5671 5671 5672 5673 5673 5672 5672 5672 5672 5672 5672 5671 5671 5671 5671 5671 5671 5671 5671 5670 5670 5670 5670 5670 5669 5669 5669 5669 5669 5668 5668 5668 5668 5668 5669
5671 5670 5669 5669 5669 5670 5672 5672 5671 5670 5667 5666 5667 5668 5667 5667 5667 5664 5663 5663 5660 5661 5665 5660 5655 5663 5672 5673 5668 5663 5664 5667 5668 5668 5669 5669 5667 5665 5665 5666 5665 5664 5665 5665 5665 5665 5666 5666 5666 5666 5667 5667 5666 5667 5668 5667 5667 5667 5667 5667 5667 5666 5666 5665 5666 5665 5665 5665 5665 5665 5664 5664 5664 5664 5663 5663 5662 5662 5662 5662 5661 5661 5661 5661 5661 5661
5664 5664 5664 5663 5664 5665 5667 5667 5666 5663 5659 5658 5660 5662 5662 5662 5660 5658 5658 5656 5654 5656 5658 5652 5649 5655 5662 5664 5661 5658 5659 5661 5661 5662 5663 5663 5663 5661 5658 5658 5660 5660 5660 5660 5660 5660 5660 5661 5661 5661 5661 5662 5661 5662 5664 5663 5662 5662 5662 5662 5661 5661 5660 5660 5660 5660 5659 5659 5659 5659 5658 5658 5658 5657 5657 5656 5656 5656 5655 5655 5655 5654 5654 5653 5654 5653
5658 5658 5658 5657 5658 5659 5661 5661 5659 5655 5653 5652 5653 5654 5655 5655 5654 5653 5651 5649 5649 5649 5647 5647 5646 5646 5650 5654 5654 5653 5654 5653 5654 5655 5655 5655 5656 5656 5654 5652 5652 5654 5654 5654 5654 5655 5655 5655 5656 5655 5656 5657 5656 5656 5658 5658 5657 5657 5657 5657 5656 5656 5656 5655 5655 5654 5654 5653 5653 5653 5652 5652 5651 5651 5650 5650 5649 5649 5649 5648 5648 5647 5647 5646 5646 5645
5651 5652 5651 5650 5651 5653 5654 5653 5651 5647 5645 5645 5646 5647 5649 5648 5647 5646 5642 5642 5643 5637 5634 5641 5642 5636 5639 5646 5647 5647 5647 5646 5646 5646 5646 5647 5648 5649 5650 5648 5646 5647 5648 5647 5647 5648 5650 5650 5650 5650 5651 5652 5652 5651 5652 5653 5653 5653 5652 5652 5651 5651 5651 5651 5650 5649 5649 5648 5647 5647 5646 5646 5645 5644 5644 5643 5643 5642 5642 5641 5641 5640 5640 5639 5638 5638
5644 5645 5645 5643 5644 5647 5647 5645 5643 5639 5637 5637 5639 5640 5642 5641 5639 5636 5633 5634 5634 5628 5626 5633 5634 5629 5632 5637 5639 5641 5640 5637 5635 5635 5637 5638 5639 5641 5643 5644 5643 5642 5642 5641 5640 5641 5644 5644 5645 5645 5646 5647 5646 5647 5647 5647 5648 5648 5648 5647 5647 5647 5646 5646 5645 5644 5644 5643 5642 5641 5640 5639 5639 5638 5637 5636 5636 5635 5634 5634 5633 5633 5632 5631 5631 5630
5637 5638 5637 5635 5636 5639 5639 5637 5635 5632 5630 5630 5631 5634 5635 5632 5628 5625 5624 5626 5625 5622 5620 5623 5622 5622 5625 5629 5631 5633 5631 5627 5625 5626 5628 5630 5632 5634 5635 5637 5638 5638 5637 5635 5634 5635 5637 5638 5638 5640 5641 5642 5641 5642 5643 5642 5643 5643 5643 5643 5643 5642 5642 5641 5640 5639 5638 5637 5637 5636 5634 5633 5632 5632 5631 5630 5629 5628 5627 5627 5626 5625 5625 5624 5623 5623
5631 5631 5629 5628 5629 5632 5632 5629 5626 5626 5624 5622 5625 5628 5626 5622 5619 5618 5618 5618 5616 5613 5614 5613 5610 5611 5619 5622 5622 5621 5620 5617 5616 5618 5620 5622 5624 5625 5626 5628 5631 5633 5633 5631 5629 5629 5630 5631 5633 5634 5636 5636 5636 5637 5638 5638 5638 5638 5638 5638 5638 5638 5637 5637 5635 5634 5633 5632 5631 5630 5629 5627 5626 5625 5624 5623 5622 5621 5620 5619 5619 5618 5617 5616 5616 5615
5625 5624 5623 5620 5619 5624 5626 5620 5616 5618 5616 5614 5619 5621 5618 5614 5613 5612 5611 5609 5607 5605 5605 5604 5601 5603 5612 5614 5611 5610 5610 5608 5609 5610 5611 5613 5615 5616 5617 5619 5623 5625 5626 5626 5626 5624 5623 5625 5628 5629 5630 5631 5632 5632 5632 5633 5633 5633 5634 5634 5633 5633 5632 5632 5630 5629 5628 5627 5625 5624 5623 5621 5620 5619 5617 5616 5615 5614 5613 5612 5611 5610 5610 5609 5608 5607
5618 5617 5617 5614 5611 5615 5618 5612 5609 5610 5606 5607 5614 5614 5609 5607 5605 5603 5602 5601 5600 5599 5596 5595 5595 5598 5603 5603 5600 5600 5601 5601 5600 5601 5602 5603 5605 5607 5608 5610 5614 5616 5617 5620 5623 5620 5617 5620 5622 5623 5624 5626 5626 5627 5627 5628 5628 5628 5629 5629 5628 5628 5627 5626 5625 5624 5623 5621 5620 5618 5617 5616 5614 5612 5611 5610 5609 5607 5606 5605 5604 5603 5602 5601 5600 5599
5612 5611 5611 5608 5604 5607 5610 5606 5602 5599 5597 5603 5609 5605 5599 5598 5597 5595 5595 5595 5594 5593 5590 5589 5589 5592 5594 5593 5591 5592 5593 5592 5591 5591 5593 5594 5595 5597 5599 5601 5605 5608 5610 5615 5616 5613 5612 5615 5617 5618 5620 5620 5621 5622 5622 5623 5623 5623 5624 5624 5623 5623 5622 5621 5620 5619 5617 5616 5614 5613 5611 5610 5608 5606 5605 5604 5602 5601 5599 5598 5596 5595 5594 5593 5592 5591
5606 5605 5604 5602 5599 5599 5601 5599 5592 5589 5591 5597 5599 5596 5592 5591 5590 5588 5587 5588 5589 5587 5584 5583 5583 5585 5585 5584 5583 5583 5583 5582 5582 5582 5584 5585 5586 5588 5590 5593 5596 5601 5605 5607 5606 5605 5607 5610 5611 5613 5615 5615 5616 5617 5617 5618 5618 5618 5619 5619 5618 5618 5617 5616 5615 5614 5612 5611 5609 5607 5606 5604 5602 5601 5599 5598 5596 5594 5592 5590 5589 5588 5586 5585 5584 5583
5600 5599 5597 5596 5593 5592 5592 5589 5583 5581 5585 5588 5588 5588 5586 5584 5584 5582 5580 5581 5584 5581 5578 5577 5577 5577 5577 5576 5576 5575 5574 5573 5573 5575 5577 5578 5579 5581 5583 5584 5588 5594 5599 5599 5597 5599 5602 5604 5606 5608 5609 5610 5611 5612 5612 5613 5613 5614 5614 5614 5613 5613 5612 5611 5609 5608 5607 5606 5604 5602 5600 5598 5596 5595 5593 5591 5589 5587 5586 5583 5582 5580 5579 5578 5577 5575
5594 5593 5591 5589 5587 5585 5582 5580 5577 5575 5577 5580 5580 5580 5579 5577 5576 5574 5572 5575 5578 5575 5571 5571 5570 5570 5570 5570 5569 5568 5567 5566 5567 5569 5572 5572 5572 5574 5576 5577 5582 5588 5591 5591 5591 5594 5597 5599 5601 5603 5604 5605 5606 5606 5607 5608 5608 5609 5609 5609 5608 5608 5607 5606 5604 5603 5602 5600 5598 5596 5594 5592 5590 5588 5586 5584 5582 5580 5578 5576 5575 5573 5571 5570 5569 5568
5587 5586 5585 5581 5580 5579 5576 5573 5573 5570 5570 5575 5574 5570 5571 5571 5569 5567 5565 5567 5572 5569 5565 5564 5563 5563 5564 5564 5562 5562 5561 5561 5562 5564 5566 5565 5565 5567 5569 5573 5577 5580 5581 5583 5586 5589 5591 5592 5594 5596 5597 5599 5600 5601 5602 5603 5604 5604 5604 5604 5603 5602 5601 5601 5600 5598 5596 5595 5593 5591 5589 5587 5585 5582 5580 5578 5575 5573 5572 5570 5568 5566 5565 5563 5562 5560
5581 5581 5580 5575 5573 5574 5572 5568 5567 5564 5565 5571 5568 5562 5564 5565 5562 5560 5560 5561 5563 5562 5558 5557 5558 5558 5558 5558 5557 5557 5556 5555 5557 5558 5559 5559 5560 5561 5564 5569 5571 5571 5572 5577 5581 5583 5585 5586 5587 5589 5591 5592 5594 5596 5596 5598 5599 5599 5599 5599 5598 5597 5596 5595 5595 5593 5591 5589 5587 5585 5583 5581 5579 5576 5574 5571 5569 5567 5566 5564 5562 5560 5558 5556 5555 5553
5577 5576 5575 5571 5568 5568 5567 5563 5561 5559 5560 5564 5561 5556 5557 5559 5557 5555 5554 5555 5556 5554 5552 5552 5553 5552 5553 5552 5552 5552 5551 5550 5551 5553 5554 5555 5556 5557 5559 5563 5564 5564 5568 5572 5575 5576 5578 5580 5581 5582 5585 5587 5589 5590 5591 5593 5594 5594 5594 5594 5593 5592 5592 5591 5590 5588 5586 5584 5582 5580 5577 5575 5573 5570 5568 5566 5563 5562 5560 5558 5556 5554 5552 5549 5547 5545
5571 5570 5568 5565 5562 5562 5561 5557 5555 5554 5555 5556 5554 5551 5551 5551 5550 5550 5549 5549 5549 5548 5546 5546 5547 5546 5547 5547 5547 5548 5547 5546 5547 5548 5549 5551 5552 5554 5556 5558 5559 5560 5563 5567 5570 5572 5572 5574 5575 5577 5580 5582 5584 5585 5587 5588 5589 5590 5590 5589 5589 5588 5587 5586 5585 5583 5581 5579 5577 5574 5572 5569 5567 5565 5563 5560 5558 5557 5554 5552 5550 5547 5545 5542 5540 5538
5563 5561 5560 5558 5555 5554 5554 5552 5549 5548 5548 5548 5547 5546 5546 5545 5544 5544 5544 5543 5543 5542 5541 5541 5541 5541 5541 5542 5543 5544 5544 5543 5543 5544 5546 5547 5548 5550 5551 5553 5555 5556 5558 5562 5566 5566 5565 5568 5571 5573 5576 5578 5579 5581 5582 5584 5584 5585 5585 5585 5584 5583 5583 5581 5579 5577 5576 5574 5571 5569 5566 5564 5562 5560 5558 5555 5553 5551 5549 5546 5543 5541 5539 5536 5534 5531
5556 5552 5552 5553 5550 5546 5545 5546 5543 5542 5541 5541 5540 5540 5540 5539 5539 5539 5538 5538 5538 5538 5537 5537 5537 5537 5537 5538 5539 5539 5539 5539 5539 5541 5542 5544 5545 5545 5546 5548 5551 5552 5554 5556 5558 5558 5560 5564 5567 5569 5572 5574 5575 5576 5578 5579 5580 5580 5580 5580 5580 5579 5578 5576 5574 5573 5571 5568 5566 5564 5561 5559 5557 5555 5553 5551 5548 5546 5543 5540 5538 5535 5533 5530 5527 5524
5548 5545 5545 5546 5545 5540 5538 5539 5538 5536 5535 5535 5534 5534 5534 5534 5534 5533 5533 5533 5533 5533 5532 5532 5532 5533 5533 5533 5534 5534 5535 5535 5536 5538 5539 5540 5541 5541 5541 5544 5546 5548 5549 5550 5552 5554 5557 5561 5564 5566 5568 5569 5571 5572 5574 5574 5575 5575 5575 5576 5575 5574 5572 5571 5569 5568 5565 5563 5561 5559 5556 5555 5552 5550 5548 5546 5543 5540 5538 5535 5533 5530 5527 5524 5520 5517
5540 5539 5537 5537 5536 5534 5532 5532 5533 5531 5530 5530 5529 5528 5529 5530 5529 5529 5528 5528 5528 5527 5527 5527 5527 5528 5528 5529 5530 5530 5530 5531 5533 5535 5537 5537 5537 5538 5539 5541 5543 5544 5546 5547 5549 5553 5556 5558 5561 5563 5564 5566 5567 5568 5570 5570 5570 5571 5571 5571 5570 5569 5567 5566 5564 5562 5560 5558 5556 5554 5552 5550 5548 5546 5544 5541 5538 5535 5533 5530 5528 5525 5522 5519 5515 5512
5532 5532 5530 5528 5528 5527 5525 5526 5527 5526 5525 5525 5524 5524 5524 5524 5524 5522 5522 5524 5524 5523 5524 5524 5522 5522 5524 5525 5525 5525 5526 5528 5529 5531 5534 5535 5535 5535 5537 5538 5540 5542 5544 5546 5548 5551 5554 5556 5558 5559 5561 5562 5563 5564 5565 5566 5566 5567 5567 5566 5566 5564 5563 5561 5559 5557 5555 5553 5551 5550 5548 5545 5543 5541 5539 5536 5533 5531 5528 5526 5523 5520 5517 5514 5510 5506
5525 5523 5522 5521 5521 5520 5520 5521 5522 5521 5520 5520 5519 5519 5520 5520 5519 5518 5518 5520 5520 5519 5520 5520 5519 5519 5520 5521 5521 5521 5522 5524 5526 5527 5530 5532 5532 5533 5534 5536 5538 5541 5543 5545 5547 5549 5551 5553 5554 5556 5557 5559 5559 5561 5562 5562 5562 5562 5562 5562 5561 5560 5558 5556 5554 5553 5551 5549 5547 5545 5543 5541 5539 5537 5534 5532 5529 5526 5524 5522 5519 5516 5513 5509 5505 5501
5519 5515 5514 5514 5514 5513 5514 5516 5516 5515 5515 5515 5515 5515 5514 5514 5514 5515 5515 5516 5516 5516 5517 5517 5516 5516 5517 5517 5517 5517 5518 5520 5521 5523 5525 5526 5528 5530 5531 5533 5536 5539 5541 5543 5545 5546 5548 5550 5551 5553 5554 5555 5556 5557 5558 5558 5558 5558 5558 5558 5556 5555 5553 5552 5550 5548 5546 5545 5543 5541 5539 5537 5535 5533 5530 5527 5525 5522 5520 5518 5515 5513 5509 5505 5500 5496
5510 5508 5509 5509 5508 5508 5509 5511 5511 5510 5511 5511 5511 5510 5509 5509 5510 5510 5511 5512 5512 5512 5513 5513 5512 5513 5513 5513 5513 5513 5514 5516 5518 5519 5520 5522 5523 5526 5528 5530 5533 5535 5538 5540 5542 5544 5545 5547 5548 5550 5551 5552 5553 5554 5555 5555 5554 5554 5554 5554 5552 5551 5549 5547 5546 5544 5542 5541 5539 5537 5535 5533 5531 5528 5526 5523 5521 5519 5516 5514 5512 5509 5505 5500 5495 5491
5503 5502 5504 5503 5502 5504 5505 5506 5506 5506 5506 5507 5507 5505 5504 5505 5506 5506 5506 5507 5508 5508 5509 5509 5510 5510 5509 5509 5509 5510 5511 5513 5515 5516 5517 5519 5520 5522 5525 5528 5530 5532 5535 5537 5539 5540 5542 5544 5545 5547 5548 5549 5550 5551 5552 5552 5551 5551 5551 5549 5548 5547 5545 5543 5542 5540 5538 5537 5535 5533 5532 5530 5527 5525 5522 5519 5517 5515 5513 5510 5508 5505 5501 5497 5492 5487
5496 5497 5498 5497 5497 5499 5500 5500 5501 5501 5501 5503 5503 5501 5500 5501 5501 5502 5503 5503 5503 5504 5505 5506 5507 5507 5506 5505 5506 5508 5509 5510 5512 5513 5514 5516 5518 5520 5522 5525 5527 5530 5532 5534 5536 5538 5540 5541 5542 5543 5544 5546 5547 5548 5548 5548 5548 5548 5547 5545 5544 5543 5541 5540 5538 5536 5535 5533 5531 5530 5528 5526 5524 5521 5518 5516 5514 5512 5510 5507 5504 5501 5497 5493 5489 5485